FW8424 Weather Reports


time (UTC)temp
F
wind
direction
speed
knots
gust
knots
rain 1hr
in
rain 24hr
in
rain mn
in
humidity
%
barometer
mb
20260504001606 51 261 1.7 7.8 0.00 0.00 0.00 73 1007.2
20260504001054 51 0 1.7 7.0 0.00 0.00 0.00 73 1007.3
20260504000553 51 253 1.7 8.7 0.00 0.00 0.00 73 1007.2
20260504000129 51 233 1.7 8.7 0.00 0.00 0.00 73 1007.1
20260503235553 51 208 2.6 8.7 0.00 0.00 0.00 73 1007.1
20260503235053 51 267 2.6 9.6 0.00 0.00 0.00 73 1007.2
20260503234557 51 268 3.5 9.6 0.00 0.00 0.00 73 1007.4
20260503234055 51 223 3.5 8.7 0.00 0.00 0.00 73 1007.3
20260503233553 51 240 3.5 8.7 0.00 0.00 0.00 73 1007.3
20260503233058 51 234 1.7 10.4 0.00 0.00 0.00 73 1007.3
20260503232554 51 247 3.5 10.4 0.00 0.00 0.00 73 1007.4
20260503232053 51 256 2.6 9.6 0.00 0.00 0.00 73 1007.6
20260503231556 51 252 1.7 12.2 0.00 0.00 0.00 73 1007.5
20260503231058 51 279 3.5 12.2 0.00 0.00 0.00 73 1007.6
20260503230558 51 252 7.0 12.2 0.00 0.00 0.00 73 1007.6
20260503225557 51 305 4.3 12.2 0.00 0.00 0.00 75 1007.6
20260503225057 51 267 5.2 12.2 0.00 0.00 0.00 75 1007.6
20260503224557 51 325 7.0 14.8 0.00 0.00 0.00 74 1007.8
20260503224057 51 251 5.2 14.8 0.00 0.00 0.00 75 1007.8
20260503223557 51 269 7.0 13.0 0.00 0.00 0.00 75 1007.9
20260503223054 51 273 5.2 13.0 0.00 0.00 0.00 76 1007.8
20260503222600 51 212 6.1 13.0 0.00 0.00 0.00 76 1007.8
20260503222057 51 261 7.0 13.0 0.00 0.00 0.00 76 1007.8
20260503221558 51 252 4.3 11.3 0.00 0.00 0.00 77 1008.0
20260503221058 50 258 3.5 11.3 0.00 0.00 0.00 77 1007.9
20260503220558 50 260 3.5 11.3 0.00 0.00 0.00 77 1008.0
20260503220058 50 268 4.3 10.4 0.00 0.00 0.00 77 1008.0
20260503215557 50 269 4.3 13.9 0.00 0.00 0.00 77 1008.1
20260503215057 51 269 3.5 13.9 0.00 0.00 0.00 76 1008.0
20260503214556 50 275 4.3 12.2 0.00 0.00 0.00 76 1008.1
20260503214057 51 294 3.5 11.3 0.00 0.00 0.00 76 1008.1
20260503213557 51 330 5.2 15.6 0.00 0.00 0.00 76 1008.1
20260503213058 51 279 5.2 15.6 0.00 0.00 0.00 75 1008.1
20260503212558 51 309 6.1 13.9 0.00 0.00 0.00 74 1008.1
20260503212058 51 266 6.1 22.6 0.00 0.00 0.00 73 1008.1
20260503211558 51 313 3.5 22.6 0.00 0.00 0.00 72 1008.0
20260503211057 52 271 7.8 18.2 0.00 0.00 0.00 71 1008.0
20260503210557 52 319 6.1 17.4 0.00 0.00 0.00 71 1008.0
20260503210058 53 252 8.7 22.6 0.00 0.00 0.00 70 1007.9
20260503205558 53 296 11.3 22.6 0.00 0.00 0.00 68 1007.9
20260503205058 55 293 9.6 20.0 0.00 0.00 0.00 63 1007.8
20260503204557 55 254 7.0 19.1 0.00 0.00 0.00 60 1007.6
20260503204057 56 255 9.6 19.1 0.00 0.00 0.00 59 1007.7
20260503203558 56 253 5.2 20.0 0.00 0.00 0.00 57 1007.6
20260503203057 56 309 9.6 20.0 0.00 0.00 0.00 53 1007.4
20260503202558 56 314 5.2 20.0 0.00 0.00 0.00 51 1007.3
20260503202058 55 247 3.5 8.7 0.00 0.00 0.00 51 1007.3
20260503201556 55 254 2.6 6.1 0.00 0.00 0.00 51 1007.2
20260503201057 55 274 1.7 5.2 0.00 0.00 0.00 52 1007.2
20260503200552 55 271 0.9 4.3 0.00 0.00 0.00 51 1007.3
20260503200106 55 0 0.0 4.3 0.00 0.00 0.00 51 1007.3
20260503195556 55 196 0.0 4.3 0.00 0.00 0.00 50 1007.5
20260503195053 55 170 0.9 5.2 0.00 0.00 0.00 50 1007.6
20260503194556 55 161 0.9 7.0 0.00 0.00 0.00 51 1007.4
20260503194057 56 200 1.7 7.0 0.00 0.00 0.00 49 1007.4
20260503193556 56 194 1.7 6.1 0.00 0.00 0.00 50 1007.4
20260503193107 55 180 2.6 6.1 0.00 0.00 0.00 50 1007.5
20260503192556 55 178 1.7 8.7 0.00 0.00 0.00 51 1007.6
20260503192053 55 163 2.6 8.7 0.00 0.00 0.00 51 1007.7
20260503191605 55 173 3.5 9.6 0.00 0.00 0.00 52 1007.8
20260503191056 55 198 1.7 9.6 0.00 0.00 0.00 53 1008.0
20260503190557 55 0 1.7 10.4 0.00 0.00 0.00 50 1008.2
20260503190104 55 148 1.7 10.4 0.00 0.00 0.00 49 1008.3
20260503185555 55 94 2.6 8.7 0.00 0.00 0.00 48 1008.3
20260503185056 55 180 3.5 12.2 0.00 0.00 0.00 47 1008.4
20260503184559 55 197 3.5 12.2 0.00 0.00 0.00 47 1008.5
20260503184054 55 225 4.3 11.3 0.00 0.00 0.00 47 1008.6
20260503183554 55 164 4.3 10.4 0.00 0.00 0.00 45 1008.7
20260503183116 56 225 4.3 11.3 0.00 0.00 0.00 43 1008.7
20260503182554 56 159 5.2 11.3 0.00 0.00 0.00 41 1008.9
20260503182053 56 186 2.6 10.4 0.00 0.00 0.00 42 1009.0
20260503181620 56 195 4.3 8.7 0.00 0.00 0.00 41 1009.0
20260503181053 56 176 3.5 8.7 0.00 0.00 0.00 43 1009.1
20260503180553 56 193 2.6 13.9 0.00 0.00 0.00 41 1009.1
20260503180111 56 163 4.3 15.6 0.00 0.00 0.00 42 1009.3
20260503175554 56 171 4.3 15.6 0.00 0.00 0.00 42 1009.2
20260503175057 56 274 0.9 9.6 0.00 0.00 0.00 42 1009.4
20260503174556 55 155 4.3 9.6 0.00 0.00 0.00 43 1009.4
20260503174053 55 251 3.5 13.0 0.00 0.00 0.00 43 1009.5
20260503173554 55 211 4.3 13.0 0.00 0.00 0.00 43 1009.7
20260503173101 55 196 5.2 13.9 0.00 0.00 0.00 42 1009.8
20260503172559 54 0 4.3 13.9 0.00 0.00 0.00 43 1009.8
20260503172055 54 189 4.3 9.6 0.00 0.00 0.00 42 1009.8
20260503171558 54 209 5.2 10.4 0.00 0.00 0.00 44 1010.0
20260503171056 54 198 3.5 12.2 0.00 0.00 0.00 43 1010.1
20260503170556 54 217 3.5 12.2 0.00 0.00 0.00 45 1010.2
20260503150554 50 240 2.6 7.8 0.00 0.00 0.00 51 1011.5
20260503131055 43 233 1.7 6.1 0.00 0.00 0.00 62 1012.3
20260503130600 43 262 1.7 6.1 0.00 0.00 0.00 62 1012.4
20260503110555 31 0 0.0 0.9 0.00 0.00 0.00 79 1012.3
20260503100107 30 0 0.0 0.0 0.00 0.00 0.00 80 1012.3
20260503090105 29 0 0.0 0.0 0.00 0.00 0.00 80 1012.8
20260503081557 29 0 0.0 0.0 0.00 0.00 0.00 78 1013.0
20260503081058 29 0 0.0 0.0 0.00 0.00 0.00 77 1013.1
20260503080558 29 0 0.0 0.0 0.00 0.00 0.00 77 1013.1
20260503072556 30 0 0.0 0.0 0.00 0.00 0.00 76 1013.1
20260503072057 30 0 0.0 0.0 0.00 0.00 0.00 76 1013.1
20260503071606 30 0 0.0 0.0 0.00 0.00 0.00 76 1013.0
20260503071056 30 0 0.0 0.0 0.00 0.00 0.00 75 1013.1
20260503070556 30 0 0.0 0.0 0.00 0.00 0.00 75 1013.1
20260503070113 30 0 0.0 0.0 0.00 0.00 0.00 75 1013.2
20260503060120 31 0 0.0 0.0 0.00 0.00 0.00 71 1013.6
20260503055058 32 0 0.0 0.0 0.00 0.00 0.00 70 1013.7
20260503054600 32 0 0.0 0.0 0.00 0.00 0.00 71 1013.7
20260503054055 32 0 0.0 0.0 0.00 0.00 0.00 71 1013.7
20260503053555 32 0 0.0 0.0 0.00 0.00 0.00 71 1013.8
20260503053055 32 0 0.0 0.0 0.00 0.00 0.00 71 1013.8
20260503052554 32 0 0.0 0.9 0.00 0.00 0.00 70 1013.9
20260503052058 32 0 0.0 0.9 0.00 0.00 0.00 70 1013.9
20260503051556 32 0 0.0 0.0 0.00 0.00 0.00 70 1013.9
20260503051054 32 0 0.0 0.0 0.00 0.00 0.00 70 1013.9
20260503050554 33 0 0.0 0.0 0.00 0.00 0.00 70 1013.9
20260503050055 33 0 0.0 0.0 0.00 0.00 0.00 70 1013.9
20260503045557 33 0 0.0 0.0 0.00 0.00 0.00 69 1013.9
20260503045055 33 0 0.0 0.0 0.00 0.00 0.00 69 1013.9
20260503044557 33 0 0.0 0.0 0.00 0.00 0.00 68 1014.0
20260503044056 33 0 0.0 0.0 0.00 0.00 0.00 67 1014.0
20260503043556 33 0 0.0 0.0 0.00 0.00 0.00 67 1014.0
20260503043057 34 0 0.0 0.0 0.00 0.00 0.00 67 1014.1
20260503042554 34 0 0.0 0.0 0.00 0.00 0.00 67 1014.0
20260503042057 34 0 0.0 0.0 0.00 0.00 0.00 66 1014.0
20260503041558 34 0 0.0 0.0 0.00 0.00 0.00 67 1014.1
20260503041054 34 0 0.0 0.0 0.00 0.00 0.00 67 1014.0
20260503040554 34 0 0.0 1.7 0.00 0.00 0.00 67 1014.1
20260503040057 34 0 0.0 1.7 0.00 0.00 0.00 66 1014.2
20260503035555 34 0 0.0 0.9 0.00 0.00 0.00 66 1014.2
20260503035054 35 0 0.0 1.7 0.00 0.00 0.00 67 1014.2
20260503034611 35 0 0.0 1.7 0.00 0.00 0.00 67 1014.1
20260503034058 35 0 0.0 1.7 0.00 0.00 0.00 67 1014.2
20260503033557 35 0 0.0 0.0 0.00 0.00 0.00 67 1014.1
20260503033059 35 0 0.0 1.7 0.00 0.00 0.00 66 1014.1
20260503032556 35 0 0.0 1.7 0.00 0.00 0.00 66 1014.0
20260503032056 36 0 0.0 1.7 0.00 0.00 0.00 66 1013.9
20260503031559 36 0 0.0 1.7 0.00 0.00 0.00 66 1014.0
20260503031055 36 0 0.0 1.7 0.00 0.00 0.00 66 1014.0
20260503030557 36 264 0.0 1.7 0.00 0.00 0.00 65 1014.1
20260503030058 36 0 0.0 1.7 0.00 0.00 0.00 65 1014.1
20260503025554 37 269 0.0 2.6 0.00 0.00 0.00 64 1014.0
20260503025056 37 275 0.0 2.6 0.00 0.00 0.00 63 1014.1
20260503024556 37 0 0.0 3.5 0.00 0.00 0.00 63 1014.1
20260503024056 37 0 0.9 3.5 0.00 0.00 0.00 63 1014.1
20260503023554 37 0 0.0 2.6 0.00 0.00 0.00 63 1014.0
20260503023059 37 0 0.9 2.6 0.00 0.00 0.00 63 1014.0
20260503022555 37 0 0.0 3.5 0.00 0.00 0.00 63 1014.1
20260503022054 37 0 0.0 3.5 0.00 0.00 0.00 64 1014.1
20260503021556 38 0 0.0 3.5 0.00 0.00 0.00 63 1014.0
20260503021057 38 257 0.9 3.5 0.00 0.00 0.00 64 1014.2
20260503020557 38 0 0.0 2.6 0.00 0.00 0.00 64 1014.2
20260503020056 38 0 0.0 2.6 0.00 0.00 0.00 64 1014.2
20260503015555 38 0 0.0 1.7 0.00 0.00 0.00 63 1014.2
20260503015055 39 0 0.0 1.7 0.00 0.00 0.00 63 1014.2
20260503014558 39 0 0.0 1.7 0.00 0.00 0.00 62 1014.1
20260503014055 39 0 0.0 1.7 0.00 0.00 0.00 60 1014.1
20260503013556 40 0 0.0 1.7 0.00 0.00 0.00 60 1014.0
20260503013103 40 0 0.0 0.9 0.00 0.00 0.00 59 1014.0
20260503012554 40 0 0.0 0.9 0.00 0.00 0.00 59 1014.0
20260503012053 40 0 0.0 1.7 0.00 0.00 0.00 59 1014.0
20260503011608 40 0 0.0 1.7 0.00 0.00 0.00 59 1014.0
20260503011056 40 0 0.0 1.7 0.00 0.00 0.00 60 1014.0
20260503010557 41 0 0.0 0.9 0.00 0.00 0.00 58 1013.9
20260503010122 41 0 0.0 2.6 0.00 0.00 0.00 57 1013.9
20260503005557 41 0 0.0 2.6 0.00 0.00 0.00 56 1013.9
20260503005059 42 0 0.0 2.6 0.00 0.00 0.00 56 1013.9
20260503004600 42 0 0.0 2.6 0.00 0.00 0.00 56 1013.8
20260503004057 42 0 0.0 2.6 0.00 0.00 0.00 54 1013.8
20260503003556 43 0 0.0 2.6 0.00 0.00 0.00 53 1013.8
20260503003111 43 0 0.9 5.2 0.00 0.00 0.00 52 1013.8
20260503002554 43 306 1.7 6.1 0.00 0.00 0.00 51 1013.8
20260503002054 43 294 1.7 7.0 0.00 0.00 0.00 52 1013.8